Santa Maria, CA

5:31 PM PDT on August 25, 2016 (GMT -0700)
Santa Maria Public Airport / Captain G. Allan Hancock Field

Weather History for KSMX - April, 2012

Change the Weather History Date:

Saturday, April 28, 2012

  Actual Average Record
Temperature  
Mean Temperature 60 °F 57 °F  
Max Temperature 71 °F 68 °F 90 °F (1981)
Min Temperature 48 °F 45 °F 32 °F (1970)
Degree Days  
Heating Degree Days 5 9  
Month to date heating degree days 241 268  
Since 1 July heating degree days 2306 2441  
Cooling Degree Days 0 0  
Month to date cooling degree days 7 0  
Year to date cooling degree days 7 2  
Growing Degree Days 10 (Base 50)    
Moisture  
Dew Point 46 °F    
Average Humidity 67    
Maximum Humidity 93    
Minimum Humidity 40    
Precipitation  
Precipitation 0.00 in 0.02 in 1.02 in (1944)
Month to date precipitation 2.31 0.94  
Year to date precipitation 7.20 9.32  
Since 1 July precipitation 9.70  
Sea Level Pressure  
Sea Level Pressure 29.94 in    
Wind  
Wind Speed 12 mph (NW)    
Max Wind Speed 29 mph    
Max Gust Speed 32 mph    
Visibility 7 miles    
Events      
T = Trace of Precipitation, MM = Missing Value Source: NWS Daily Summary

Daily Weather History Graph

Daily Weather History Graph

Search for Another Location

Airport or City:

Trip Planner

Search our weather history database for the weather conditions in past years. The results will help you decide how hot, cold, wet, or windy it might be!

Date:

Astronomy

Apr. 28, 2012 Rise Set
Actual Time 6:13 AM PDT 7:45 PM PDT
Civil Twilight 5:46 AM PDT 8:12 PM PDT
Nautical Twilight 5:14 AM PDT 8:44 PM PDT
Astronomical Twilight 4:40 AM PDT 9:18 PM PDT
Moon 11:59 AM PDT (4/28) 1:11 AM PDT (4/28)
Length of Visible Light 14h 25m
Length of Day
13h 31m
Waxing Crescent, 44% of the Moon is Illuminated
Apr 28
Waxing Crescent
Apr 29
First Quarter
May 5
Full
May 12
Last Quarter
May 20
New

Hourly Weather History & Observations

Time (PDT) Temp. Dew Point Humidity Pressure Visibility Wind Dir Wind Speed Gust Speed Precip Events Conditions
12:51 AM 51.1 °F 46.9 °F 86% 30.04 in 6.0 mi NW 12.7 mph - N/A   Clear
1:51 AM 51.1 °F 45.0 °F 80% 30.02 in 8.0 mi WNW 5.8 mph - N/A   Clear
2:51 AM 51.1 °F 43.0 °F 74% 30.01 in 10.0 mi NW 9.2 mph - N/A   Clear
3:51 AM 51.1 °F 43.0 °F 74% 30.00 in 10.0 mi NNW 12.7 mph - N/A   Clear
4:51 AM 48.9 °F 42.1 °F 77% 30.01 in 10.0 mi NW 9.2 mph - N/A   Clear
5:51 AM 50.0 °F 42.1 °F 74% 30.01 in 10.0 mi NW 11.5 mph - N/A   Clear
6:51 AM 50.0 °F 43.0 °F 77% 30.01 in 10.0 mi NW 11.5 mph - N/A   Clear
7:51 AM 55.9 °F 45.0 °F 67% 30.01 in 10.0 mi SW 3.5 mph - N/A   Clear
8:51 AM 64.0 °F 46.0 °F 52% 30.01 in 10.0 mi WNW 8.1 mph - N/A   Clear
9:51 AM 69.1 °F 45.0 °F 42% 29.99 in 10.0 mi NW 10.4 mph - N/A   Clear
10:51 AM 70.0 °F 46.9 °F 44% 29.97 in 10.0 mi WNW 16.1 mph 23.0 mph N/A   Clear
11:51 AM 71.1 °F 46.9 °F 42% 29.95 in 9.0 mi WNW 19.6 mph 25.3 mph N/A   Clear
12:51 PM 66.9 °F 48.9 °F 52% 29.94 in 7.0 mi WNW 23.0 mph 28.8 mph N/A   Clear
1:51 PM 64.9 °F 48.9 °F 56% 29.92 in 6.0 mi WNW 23.0 mph 29.9 mph N/A   Haze
2:51 PM 64.0 °F 48.0 °F 56% 29.90 in 6.0 mi WNW 27.6 mph 31.1 mph N/A   Haze
3:51 PM 62.1 °F 48.9 °F 62% 29.88 in 5.0 mi NW 23.0 mph 32.2 mph N/A   Haze
4:51 PM 61.0 °F 48.9 °F 64% 29.88 in 6.0 mi WNW 19.6 mph 31.1 mph N/A   Haze
5:51 PM 57.9 °F 48.9 °F 72% 29.88 in 6.0 mi WNW 21.9 mph 27.6 mph N/A   Haze
6:51 PM 55.0 °F 48.9 °F 80% 29.88 in 6.0 mi WNW 18.4 mph 26.5 mph N/A   Haze
7:51 PM 52.0 °F 48.9 °F 89% 29.89 in 5.0 mi WNW 10.4 mph - N/A   Clear
8:51 PM 51.1 °F 48.0 °F 89% 29.89 in 6.0 mi NNW 4.6 mph - N/A   Clear
9:51 PM 51.1 °F 48.0 °F 89% 29.89 in 5.0 mi Calm Calm - N/A   Clear
10:51 PM 48.9 °F 46.9 °F 93% 29.88 in 5.0 mi NW 5.8 mph - N/A   Clear
11:25 PM 48.2 °F 46.4 °F 93% 29.87 in 5.0 mi Calm Calm - N/A   Scattered Clouds
11:36 PM 48.2 °F 46.4 °F 93% 29.87 in 4.0 mi Calm Calm - N/A   Mostly Cloudy
11:51 PM 48.9 °F 46.9 °F 93% 29.87 in 4.0 mi West 3.5 mph - N/A   Overcast
11:55 PM - - N/A% - - North - - N/A   Unknown